Hourly Data Report for August 06, 2021

KUGLUKTUK A
NUNAVUT
Current Station Operator: NAVCAN

67°49'00.000" N
115°08'38.000" W
22.60 m
2300903
71938
YCO

Download Data

Hourly Data (August 2021)
Hourly Data Report for August 6, 2021
TIME
LST
Temp Definition
°C
Dew Point Definition
°C
Rel Hum Definition
%
Precip. Amount Definition
mm

Wind Dir Definition
10's deg

Wind Spd Definition
km/h
Visibility Definition
km
Stn Press Definition
kPa
Hmdx Definition


Wind Chill Definition


Weather Definition


00:00 8.7 7.7 93   30 5 16.1 100.12     LegendNANA
01:00 8.9 7.7 92   31 5 24.1 100.07     LegendNANA
02:00 9.9 7.7 86   32 5 16.1 100.02     Cloudy
03:00 11.0 7.3 78   20 9 19.3 99.99     LegendNANA
04:00 11.0 7.5 79   22 9 19.3 99.95     LegendNANA
05:00 10.8 7.8 82   25 3 19.3 99.94     Cloudy
06:00 11.5 7.7 77   26 12 19.3 99.93     LegendNANA
07:00 11.2 8.3 82   23 15 24.1 99.94     LegendNANA
08:00 12.9 9.2 78   30 19 19.3 99.96     Cloudy
09:00 12.4 8.8 79   35 11 24.1 99.99     LegendNANA
10:00 12.4 8.3 76   35 14 24.1 100.02     LegendNANA
11:00 10.0 6.8 80   36 20 24.1 100.08     Cloudy
12:00 8.9 6.4 84   35 21 24.1 100.12     LegendNANA
13:00 8.8 5.9 82   35 16 24.1 100.16     LegendNANA
14:00 8.7 5.6 81   1 14 24.1 100.22     Cloudy
15:00 8.8 5.1 78   36 22 24.1 100.27     LegendNANA
16:00 8.6 4.4 75   36 23 24.1 100.29     LegendNANA
17:00 7.5 4.3 80   35 23 24.1 100.33     Cloudy
18:00 6.6 3.9 83   36 18 24.1 100.36     LegendNANA
19:00 6.9 3.6 79   36 14 24.1 100.38     LegendNANA
20:00 6.8 2.8 75   34 26 24.1 100.42     Cloudy
21:00 6.5 2.2 74   35 21 24.1 100.42     LegendNANA
22:00 6.4 2.3 75   33 16 24.1 100.44     LegendNANA
23:00 6.1 2.1 76   36 17 24.1 100.47     Cloudy

Notes on Data Quality.

Legend

  • E = Estimated
  • M = Missing
  • NA = Not Available*
  • [empty] = Indicates an unobserved value
Date modified: